DW9498 Weather Reports


Display with metric or nautical units.
time (UTC)temp
F
wind
direction
speed
MPH
gust
MPH
rain 1hr
in
rain 24hr
in
rain mn
in
humidity
%
barometer
mb
20260509030344 62 242 0.0 0.0 0.00 0.00 0.00 43 1005.9
20260509025331 62 242 0.0 0.0 0.00 0.00 0.00 41 1005.8
20260509024337 64 242 0.0 0.0 0.00 0.00 0.00 39 1005.6
20260509023327 65 242 0.0 0.0 0.00 0.00 0.00 39 1005.5
20260509022338 66 242 0.0 0.0 0.00 0.00 0.00 36 1005.4
20260509021325 68 242 0.0 0.0 0.00 0.00 0.00 34 1005.2
20260509020338 69 242 0.0 0.0 0.00 0.00 0.00 31 1005.1
20260509015325 71 242 0.0 0.0 0.00 0.00 0.00 28 1004.9
20260509014335 72 278 0.0 1.0 0.00 0.00 0.00 27 1004.8
20260509013349 73 277 0.0 1.0 0.00 0.00 0.00 28 1004.8
20260509012330 74 128 0.0 3.0 0.00 0.00 0.00 27 1004.7
20260509011338 74 9 0.0 3.0 0.00 0.00 0.00 27 1004.6
20260509010350 75 3 1.0 3.0 0.00 0.00 0.00 26 1004.5
20260509005333 75 348 0.0 6.0 0.00 0.00 0.00 26 1004.5
20260509004339 76 267 3.0 8.0 0.00 0.00 0.00 25 1004.4
20260509003348 77 22 2.0 3.0 0.00 0.00 0.00 27 1004.3
20260509002333 77 360 1.0 8.0 0.00 0.00 0.00 27 1004.3
20260509001335 77 172 1.0 5.0 0.00 0.00 0.00 28 1004.3
20260509000326 78 282 2.0 6.0 0.00 0.00 0.00 28 1004.3
20260508235355 78 234 0.0 3.0 0.00 0.00 0.00 29 1004.3
20260508234339 77 358 2.0 6.0 0.00 0.00 0.00 30 1004.4
20260508233351 77 84 2.0 5.0 0.00 0.00 0.00 27 1004.5
20260508232334 77 357 1.0 8.0 0.00 0.00 0.00 32 1004.7
20260508231340 78 91 2.0 6.0 0.00 0.00 0.00 27 1004.5
20260508230350 80 232 3.0 8.0 0.00 0.00 0.00 26 1004.4
20260508225333 81 155 2.0 6.0 0.00 0.00 0.00 27 1004.5
20260508224332 80 199 4.0 8.0 0.00 0.00 0.00 24 1004.6
20260508223323 80 128 2.0 5.0 0.00 0.00 0.00 27 1004.8
20260508222336 80 351 1.0 7.0 0.00 0.00 0.00 27 1004.8
20260508221340 80 171 3.0 5.0 0.00 0.00 0.00 26 1005.0
20260508220329 79 223 2.0 8.0 0.00 0.00 0.00 26 1005.1
20260508215341 79 280 2.0 6.0 0.00 0.00 0.00 25 1005.2
20260508214327 79 157 1.0 4.0 0.00 0.00 0.00 26 1005.3
20260508213336 79 157 2.0 5.0 0.00 0.00 0.00 26 1005.4
20260508212329 79 170 3.0 7.0 0.00 0.00 0.00 25 1005.4
20260508211331 79 20 1.0 8.0 0.00 0.00 0.00 28 1005.6
20260508210332 79 285 0.0 2.0 0.00 0.00 0.00 29 1005.7
20260508205342 78 9 1.0 7.0 0.00 0.00 0.00 27 1006.0
20260508204343 79 110 3.0 6.0 0.00 0.00 0.00 25 1006.1
20260508203353 80 3 2.0 4.0 0.00 0.00 0.00 25 1006.2
20260508202328 79 256 1.0 5.0 0.00 0.00 0.00 28 1006.3
20260508201345 78 165 3.0 5.0 0.00 0.00 0.00 27 1006.6
20260508200323 77 34 1.0 5.0 0.00 0.00 0.00 27 1006.7
20260508195355 77 156 0.0 7.0 0.00 0.00 0.00 26 1006.9
20260508194337 77 170 4.0 7.0 0.00 0.00 0.00 24 1007.0
20260508193327 77 165 1.0 5.0 0.00 0.00 0.00 26 1007.1
20260508192339 77 118 0.0 5.0 0.00 0.00 0.00 26 1007.3
20260508191332 78 180 1.0 4.0 0.00 0.00 0.00 27 1007.3
20260508190336 77 197 2.0 6.0 0.00 0.00 0.00 28 1007.3
20260508185328 76 93 3.0 7.0 0.00 0.00 0.00 26 1007.5
20260508184332 76 356 2.0 4.0 0.00 0.00 0.00 28 1007.6
20260508183339 75 6 1.0 6.0 0.00 0.00 0.00 28 1007.7
20260508182326 74 263 1.0 4.0 0.00 0.00 0.00 26 1007.9
20260508181403 75 337 2.0 3.0 0.00 0.00 0.00 31 1008.0
20260508180332 75 219 2.0 5.0 0.00 0.00 0.00 25 1008.1
20260508175327 74 148 1.0 3.0 0.00 0.00 0.00 25 1008.2
20260508174407 74 206 0.0 3.0 0.00 0.00 0.00 26 1008.2
20260508173329 73 154 0.0 3.0 0.00 0.00 0.00 30 1008.3
20260508172341 71 352 1.0 2.0 0.00 0.00 0.00 33 1008.5
20260508171327 71 341 0.0 2.0 0.00 0.00 0.00 30 1008.6
20260508170337 71 16 1.0 3.0 0.00 0.00 0.00 31 1008.7
20260508165352 71 341 1.0 3.0 0.00 0.00 0.00 31 1008.7
20260508164336 72 17 0.0 3.0 0.00 0.00 0.00 32 1008.7
20260508163351 73 6 2.0 3.0 0.00 0.00 0.00 31 1008.7
20260508162331 73 207 0.0 3.0 0.00 0.00 0.00 32 1008.7
20260508161340 71 205 1.0 5.0 0.00 0.00 0.00 34 1008.7
20260508160332 70 353 0.0 4.0 0.00 0.00 0.00 35 1008.8
20260508155342 69 220 2.0 4.0 0.00 0.00 0.00 41 1008.9
20260508154327 68 259 1.0 4.0 0.00 0.00 0.00 40 1009.0
20260508153336 67 167 0.0 3.0 0.00 0.00 0.00 44 1009.0
20260508152326 66 190 0.0 2.0 0.00 0.00 0.00 45 1009.0
20260508151342 64 233 0.0 0.0 0.00 0.00 0.00 49 1009.0
20260508150326 63 199 0.0 1.0 0.00 0.00 0.00 51 1009.0
20260508145333 62 225 0.0 3.0 0.00 0.00 0.00 50 1009.0
20260508144339 61 173 1.0 3.0 0.00 0.00 0.00 50 1009.1
20260508143350 60 150 1.0 3.0 0.00 0.00 0.00 50 1009.3
20260508142340 60 181 0.0 0.0 0.00 0.00 0.00 52 1009.2
20260508141340 59 164 0.0 1.0 0.00 0.00 0.00 54 1009.4
20260508140346 58 230 0.0 1.0 0.00 0.00 0.00 56 1009.4
20260508135352 55 199 0.0 0.0 0.00 0.00 0.00 62 1009.2
20260508134333 54 198 0.0 0.0 0.00 0.00 0.00 73 1009.3
20260508133324 53 198 0.0 0.0 0.00 0.00 0.00 72 1009.4
20260508132329 53 198 0.0 0.0 0.00 0.00 0.00 71 1009.4
20260508131333 53 198 0.0 0.0 0.00 0.00 0.00 72 1009.2
20260508130325 53 198 0.0 0.0 0.00 0.00 0.00 71 1009.0
20260508125338 53 197 0.0 0.0 0.00 0.00 0.00 69 1008.9
20260508124323 53 198 0.0 0.0 0.00 0.00 0.00 67 1008.8
20260508123333 53 198 0.0 0.0 0.00 0.00 0.00 66 1008.8
20260508122326 52 197 0.0 2.0 0.00 0.00 0.00 65 1008.8
20260508121345 52 221 0.0 0.0 0.00 0.00 0.00 66 1008.8
20260508120326 52 221 0.0 1.0 0.00 0.00 0.00 62 1008.9
20260508115335 52 8 0.0 0.0 0.00 0.00 0.00 62 1008.8
20260508114337 51 242 0.0 0.0 0.00 0.00 0.00 61 1009.1
20260508113343 51 242 0.0 0.0 0.00 0.00 0.00 60 1008.9
20260508112326 50 242 0.0 0.0 0.00 0.00 0.00 58 1008.7
20260508111328 51 242 0.0 0.0 0.00 0.00 0.00 57 1008.7
20260508110335 51 242 0.0 0.0 0.00 0.00 0.00 55 1008.8
20260508105349 52 241 0.0 0.0 0.00 0.00 0.00 53 1008.9
20260508104403 53 242 0.0 0.0 0.00 0.00 0.00 54 1008.9
20260508103334 53 242 0.0 0.0 0.00 0.00 0.00 50 1008.7
20260508102347 54 209 0.0 0.0 0.00 0.00 0.00 48 1009.0
20260508101358 53 209 0.0 1.0 0.00 0.00 0.00 48 1009.2
20260508100326 53 206 0.0 0.0 0.00 0.00 0.00 51 1009.3
20260508095340 53 206 0.0 0.0 0.00 0.00 0.00 50 1009.1
20260508094326 52 206 0.0 0.0 0.00 0.00 0.00 50 1009.3
20260508093338 52 206 0.0 0.0 0.00 0.00 0.00 53 1009.4
20260508092323 52 206 0.0 0.0 0.00 0.00 0.00 53 1009.2
20260508091327 53 206 0.0 0.0 0.00 0.00 0.00 51 1009.3
20260508090352 54 206 0.0 0.0 0.00 0.00 0.00 52 1009.2
20260508085324 55 206 0.0 0.0 0.00 0.00 0.00 49 1009.3
20260508084334 56 206 0.0 0.0 0.00 0.00 0.00 48 1009.2
20260508083346 56 206 0.0 0.0 0.00 0.00 0.00 46 1009.5
20260508082331 56 206 0.0 1.0 0.00 0.00 0.00 46 1009.2
20260508081336 56 206 0.0 0.0 0.00 0.00 0.00 46 1009.3
20260508080343 57 206 0.0 0.0 0.00 0.00 0.00 44 1009.4
20260508075336 57 206 0.0 0.0 0.00 0.00 0.00 44 1009.7
20260508074341 57 154 0.0 0.0 0.00 0.00 0.00 45 1009.8
20260508073350 57 154 0.0 0.0 0.00 0.00 0.00 43 1009.7
20260508072327 57 154 0.0 1.0 0.00 0.00 0.00 41 1009.5
20260508071328 57 3 0.0 0.0 0.00 0.00 0.00 43 1009.0
20260508070338 56 2 0.0 0.0 0.00 0.00 0.00 45 1009.4
20260508065325 55 2 0.0 1.0 0.00 0.00 0.00 51 1009.4
20260508064332 55 2 0.0 0.0 0.00 0.00 0.00 53 1009.5
20260508063323 56 2 0.0 0.0 0.00 0.00 0.00 49 1009.6
20260508062400 56 2 0.0 0.0 0.00 0.00 0.00 46 1009.8
20260508061328 56 2 0.0 0.0 0.00 0.00 0.00 44 1009.8
20260508060337 56 2 0.0 0.0 0.00 0.00 0.00 44 1009.6
20260508055329 56 2 0.0 0.0 0.00 0.00 0.00 46 1009.5
20260508054329 56 2 0.0 0.0 0.00 0.00 0.00 47 1009.2
20260508053355 55 2 0.0 0.0 0.00 0.00 0.00 49 1009.4
20260508052325 55 2 0.0 0.0 0.00 0.00 0.00 50 1009.2
20260508051419 54 2 0.0 0.0 0.00 0.00 0.00 49 1009.2
20260508050349 54 2 0.0 0.0 0.00 0.00 0.00 51 1009.4
20260508045324 54 2 0.0 0.0 0.00 0.00 0.00 52 1009.5
20260508044331 53 2 0.0 0.0 0.00 0.00 0.00 51 1009.7
20260508043323 53 2 0.0 0.0 0.00 0.00 0.00 52 1009.7
20260508042334 53 2 0.0 0.0 0.00 0.00 0.00 51 1009.6
20260508041349 53 2 0.0 0.0 0.00 0.00 0.00 50 1009.6
20260508040330 53 2 0.0 0.0 0.00 0.00 0.00 50 1009.7
20260508035339 53 2 0.0 0.0 0.00 0.00 0.00 48 1009.6
20260508034340 54 2 0.0 0.0 0.00 0.00 0.00 50 1009.5
20260508033347 54 2 0.0 0.0 0.00 0.00 0.00 49 1009.5
20260508032333 55 2 0.0 0.0 0.00 0.00 0.00 48 1009.6
20260508031354 55 2 0.0 0.0 0.00 0.00 0.00 47 1009.6